Location: *
(46.1833°N, 22.7667°E)
Time: 06:27:38
(UTC+00:00)

DMSP B5D2-2 - Visible Passes

Search period start: 06 December 2019 00:00
Search period end: 16 December 2019 00:00
Orbit: 789 x 807 km, 98.4° (Epoch: 05 December)

Date Brightness Start Highest point End Pass type
(mag) Time Alt. Az. Time Alt. Az. Time Alt. Az.
06 Dec 5.2 05:17:34 10° SE 05:22:29 44° ENE 05:27:25 10° N visible
07 Dec 6.0 04:51:12 10° ESE 04:55:31 27° ENE 04:59:51 10° N visible
08 Dec 6.5 04:25:23 10° E 04:28:40 17° ENE 04:31:57 10° NNE visible
09 Dec 6.9 04:00:58 10° ENE 04:01:55 10° NE 04:02:54 10° NE visible
10 Dec 5.5 05:08:47 10° SE 05:13:33 38° ENE 05:18:20 10° N visible
11 Dec 6.2 04:42:35 10° ESE 04:46:38 24° ENE 04:50:41 10° N visible
12 Dec 6.6 04:16:59 10° E 04:19:49 15° ENE 04:22:37 10° NNE visible
13 Dec 4.9 05:26:35 10° SE 05:31:38 54° ENE 05:36:42 10° N visible
14 Dec 5.7 05:00:03 10° SE 05:04:38 32° ENE 05:09:14 10° N visible
15 Dec 6.4 04:34:00 10° ESE 04:37:44 20° ENE 04:41:29 10° NNE visible
